Home   Weather   38°57'N, 121°32'E   Past weeks
Flag for China

Past Weather in 38°57'N, 121°32'E, China — Yesterday and Last 2 Weeks

Now
79 °F

Clear.


Feels Like: 81 °F
Forecast: 84 / 74 °F
Wind: 8 mph from East

Location: Dalian Airport

Current Time: Jul 19, 2019 at 9:07:41 pm

Latest Report: Jul 19, 2019 at 8:00 pm


Visibility: 10 mi

Pressure: 29.68 "Hg

Humidity: 70%

Dew Point: 68 °F

Location of 38°57'N, 121°32'ELocation

Past Weather in 38°57'N, 121°32'E — Graph

°F

38°57'N, 121°32'E Temperature Yesterday

Maximum temperature yesterday: 86 °F (at 1:30 pm)
Minimum temperature yesterday: 75 °F (at 1:00 am)
Average temperature yesterday: 79 °F

High & Low Weather Summary for the Past Weeks

 TemperatureHumidityPressure
High88 °F (Jul 5, 3:00 pm)100% (Jul 14, 3:30 am)29.83 "Hg (Jul 14, 3:30 am)
Low66 °F (Jul 12, 3:30 am)42% (Jul 9, 4:30 pm)29.47 "Hg (Jul 5, 4:00 pm)
Average77 °F74%29.70 "Hg
* Reported Jul 4 7:00 pm — Jul 19 7:30 pm, 38°57'N, 121°32'E. Weather by CustomWeather, © 2019

Note: Actual official high and low records may vary slightly from our data, if they occured in-between our weather recording intervals... More about our weather records

Advertising

38°57'N, 121°32'E Weather History for the Previous 24 Hours

Scroll right to see more
 ConditionsComfort  
Time TempWeatherWind HumidityBarometerVisibility
7:30 pm
Fri, Jul 19
79 °FClear.8 mph70%29.68 "Hg10 mi
7:00 pm79 °FSunny.10 mph70%29.68 "Hg10 mi
6:30 pm81 °FSunny.10 mph66%29.68 "Hg10 mi
6:00 pm82 °FSunny.13 mph62%29.68 "Hg10 mi
5:30 pm82 °FSunny.10 mph62%29.68 "Hg10 mi
5:00 pm82 °FSunny.10 mph62%29.68 "Hg10 mi
4:30 pm84 °FSunny.13 mph58%29.68 "Hg10 mi
4:00 pm86 °FPassing clouds.13 mph55%29.68 "HgN/A
3:30 pm86 °FSunny.13 mph55%29.68 "Hg10 mi
3:00 pm88 °FSunny.15 mph49%29.68 "Hg10 mi
2:30 pm86 °FSunny.15 mph55%29.68 "Hg10 mi
2:00 pm86 °FSunny.13 mph55%29.71 "Hg10 mi
1:30 pm86 °FSunny.13 mph55%29.71 "Hg10 mi
1:00 pm84 °FPassing clouds.13 mph58%29.71 "HgN/A
12:30 pm84 °FScattered clouds.13 mph62%29.71 "HgN/A
12:00 pm84 °FScattered clouds.15 mph62%29.71 "HgN/A
11:30 am84 °FScattered clouds.15 mph66%29.71 "HgN/A
11:00 am84 °FScattered clouds.15 mph66%29.74 "HgN/A
10:30 am82 °FScattered clouds.15 mph70%29.74 "HgN/A
10:00 am84 °FPartly sunny.13 mph66%29.74 "HgN/A
9:30 am82 °FPartly sunny.13 mph70%29.74 "HgN/A
9:00 am81 °FPartly sunny.13 mph74%29.74 "Hg5 mi
8:30 am79 °FPartly sunny.10 mph74%29.74 "Hg5 mi
8:00 am79 °FClear.10 mph74%29.74 "Hg5 mi
7:30 am77 °FClear.8 mph79%29.74 "Hg5 mi
7:00 am77 °FClear.8 mph79%29.74 "Hg5 mi
6:30 am77 °FClear.6 mph79%29.74 "Hg4 mi
6:00 am75 °FClear.6 mph83%29.74 "Hg4 mi
5:30 am75 °FClear.3 mph83%29.74 "Hg4 mi
5:00 am73 °FClear.3 mph89%29.74 "Hg4 mi
4:30 am73 °FClear.6 mph89%29.74 "Hg4 mi
4:00 am73 °FClear.3 mph89%29.74 "Hg4 mi
3:30 am75 °FClear.3 mph83%29.74 "Hg4 mi
3:00 am75 °FClear.3 mph83%29.74 "Hg4 mi
2:30 am75 °FClear.3 mph83%29.74 "Hg4 mi
2:00 am75 °FClear.3 mph83%29.74 "Hg4 mi
1:30 am75 °FClear.6 mph83%29.74 "Hg4 mi
1:00 am75 °FPassing clouds.6 mph83%29.74 "Hg4 mi
12:30 am75 °FPassing clouds.6 mph83%29.74 "Hg4 mi
12:00 am75 °FPassing clouds.6 mph83%29.74 "Hg4 mi
11:30 pm
Thu, Jul 18
75 °FPassing clouds.6 mph83%29.74 "Hg4 mi
11:00 pm75 °FPassing clouds.6 mph83%29.77 "HgN/A
10:30 pm77 °FPassing clouds.8 mph79%29.77 "HgN/A
10:00 pm77 °FPassing clouds.8 mph79%29.77 "HgN/A
9:30 pm77 °FPassing clouds.6 mph79%29.77 "HgN/A
9:00 pm77 °FPassing clouds.10 mph79%29.77 "HgN/A
Weather by CustomWeather, © 2019

See weather overview